Location: Boiro
(42.6475°N, 8.8834°W)
Time: 16:27:54
(UTC+01:00)

Explorer 11/Cluster Stage 4 - Pass Details

Date: 06 December 2021
Orbit: 467 x 1255 km, 28.8° (Epoch: 21 January)

Event Time Altitude Azimuth Distance (km) Brightness Sun altitude
Rises 07:30:12 0° 255° (WSW) 3,889 - -14.4°
Exits shadow 07:32:32 - 244° (WSW) 3,361 9.4 -14.0°
Reaches altitude 10° 07:34:14 10° 234° (SW) 3,056 9.3 -13.7°
Maximum altitude 07:38:20 15° 202° (SSW) 2,763 9.3 -13.0°
Drops below altitude 10° 07:42:36 10° 170° (S) 3,204 10.1 -12.2°
Sets 07:47:01 0° 149° (SSE) 4,184 11.2 -11.5°
